Flag for American Samoa Weather past 2 weeks in Pago Pago, American Samoa

Now
82 °F

Passing clouds.


Feels Like: 84 °F
Forecast: 76 / 80 °F
Wind: 12 mph from South

Location: Pago Pago / Int. Airp.

Current Time: Aug 27, 2015 at 3:42:18 PM

Latest Report: Aug 27, 2015 at 3:00 PM


Visibility: 12 mi

Pressure: 29.83 "Hg

Humidity: 59%

Dew point: 66 °F

Location of Pago PagoLocation

Historic Weather in Pago Pago — Graph

°F

Pago Pago temperature yesterday

Maximum temperature yesterday: 82 °F (at 11:50 AM)
Minimum temperature yesterday: 77 °F (at 2:53 AM)
Average temperature yesterday: 79 °F

Past Weeks' High & Low Weather Summary

 TemperatureHumidityPressure
High88 °F (Aug 24, 2:50 PM)95% (Aug 24, 6:55 AM)30.03 "Hg (Aug 24, 6:55 AM)
Low72 °F (Aug 14, 11:50 PM)55% (Aug 24, 2:50 PM)29.82 "Hg (Aug 24, 2:50 PM)
Average79 °F79%29.92 "Hg
* Reported Aug 12 1:58 PM — Aug 27 1:50 PM, Pago Pago, Weather by CustomWeather, © 2015

Note: Actual official high and low records may vary slightly from our data, if they occured in-between our weather recording intervals... More about our weather records

Advertising

Pago Pago weather history for previous 24 hours

 ConditionsComfort  
Time TempWeatherWind HumidityBarometerVisibility
1:50 PM
Thu, Aug 27
82 °FPassing clouds.8 mph59%29.85 "Hg12 mi
12:50 PM83 °FPassing clouds.9 mph60%29.88 "Hg12 mi
11:50 AM82 °FPassing clouds.12 mph60%29.90 "Hg12 mi
9:55 AM81 °FScattered clouds.10 mph62%29.92 "Hg12 mi
8:56 AM80 °FScattered clouds.13 mph62%29.92 "Hg12 mi
7:50 AM78 °FScattered clouds.12 mph69%29.90 "Hg12 mi
7:00 AM76 °FScattered clouds.12 mph73%29.87 "Hg10 mi
6:53 AM77 °FPassing clouds.16 mph72%29.88 "Hg12 mi
6:00 AM76 °FPassing clouds.10 mph74%29.85 "Hg10 mi
5:50 AM76 °FPassing clouds.12 mph73%29.87 "Hg10 mi
4:53 AM76 °FPassing clouds.10 mph74%29.85 "Hg10 mi
3:55 AM77 °FPassing clouds.8 mph74%29.85 "Hg10 mi
2:52 AM76 °FPassing clouds.10 mph72%29.86 "Hg10 mi
2:00 AM77 °FPassing clouds.9 mph71%29.88 "Hg10 mi
1:50 AM77 °FPassing clouds.9 mph71%29.88 "Hg10 mi
1:00 AM77 °FPassing clouds.9 mph70%29.90 "Hg10 mi
12:50 AM77 °FPassing clouds.9 mph70%29.90 "Hg10 mi
12:00 AM77 °FPassing clouds.9 mph69%29.91 "Hg10 mi
11:50 PM
Wed, Aug 26
77 °FPassing clouds.9 mph69%29.91 "Hg10 mi
10:50 PM77 °FPassing clouds.9 mph72%29.91 "Hg10 mi
9:50 PM77 °FPassing clouds.10 mph71%29.91 "Hg10 mi
8:52 PM78 °FPassing clouds.10 mph73%29.90 "Hg10 mi
7:51 PM77 °FPassing clouds.12 mph74%29.88 "Hg10 mi
7:00 PM78 °FPassing clouds.9 mph73%29.86 "Hg10 mi
6:50 PM77 °FPassing clouds.9 mph74%29.86 "Hg10 mi
5:50 PM78 °FPassing clouds.10 mph70%29.85 "Hg12 mi
4:51 PM80 °FPartly sunny.9 mph67%29.84 "Hg12 mi
3:50 PM81 °FPassing clouds.8 mph66%29.83 "Hg12 mi
Weather by CustomWeather, © 2015

See weather overviewHow to use our weather pages